Location: Chatou
(48.8898°N, 2.1586°E)
Time: 08:14:39
(UTC+00:00)

BlueWalker 3 - Visible Passes

Search period start: 08 June 2023 00:00
Search period end: 18 June 2023 00:00
Orbit: 494 x 513 km, 53.2° (Epoch: 07 June)

Date Brightness Start Highest point End Pass type
(mag) Time Alt. Az. Time Alt. Az. Time Alt. Az.
08 Jun 2.5 21:20:00 10° WNW 21:23:47 56° NNE 21:27:37 10° E visible
08 Jun 2.3 22:58:36 10° WNW 23:02:18 46° SW 23:02:54 42° S visible
09 Jun 2.5 20:59:33 10° WNW 21:03:21 56° NNE 21:07:10 10° E visible
09 Jun 2.3 22:38:09 10° WNW 22:41:51 45° SW 22:42:47 37° S visible
10 Jun 2.5 20:39:05 10° WNW 20:42:53 57° NNE 20:46:42 10° E visible
10 Jun 2.4 22:17:42 10° WNW 22:21:23 44° SW 22:22:42 31° SSE visible
11 Jun 2.5 21:57:13 10° WNW 22:00:54 43° SW 22:02:39 25° SSE visible
12 Jun 2.5 21:36:46 10° WNW 21:40:25 42° SW 21:42:39 20° SSE visible
13 Jun 2.6 21:16:16 10° WNW 21:19:54 41° SW 21:22:41 16° SSE visible
14 Jun 2.7 20:55:46 10° WNW 20:59:23 40° SW 21:02:46 11° SSE visible
15 Jun 2.8 20:35:16 10° WNW 20:38:52 39° SW 20:42:29 10° SSE visible
